When you browse on this site, cookies collect data to enhance your experience and personalize the content and advertising you see.
Visit our Privacy Policy to learn more. By continuing to use the site, you agree to this use of cookies and data.
  • In Denmark
  • List of Countries
  • For 7 days
  • Water Temperature
  • Satellite Maps
  • Weather Map
  • Weather Widgets
  • user-avatar
    Login

    Hourly Weather Dziebedow

    Today, 19 December, Wednesday

    Time Temperature Precipitation Wind Pressure Humidity
    00:00 -2°C° 0 mm 3 mps 756 mmHg 89%
    01:00 -2°C° 0 mm 3 mps 756 mmHg 89%
    02:00 -2°C° 0 mm 3 mps 756 mmHg 88%
    03:00 -3°C° 0 mm 4 mps 756 mmHg 88%
    04:00 -3°C° 0 mm 4 mps 755 mmHg 87%
    05:00 -3°C° 0 mm 4 mps 755 mmHg 87%
    06:00 -3°C° 0 mm 4 mps 755 mmHg 87%
    07:00 -4°C° 0 mm 4 mps 755 mmHg 87%
    08:00 -5°C° 0 mm 5 mps 755 mmHg 84%
    09:00 -4°C° 0 mm 5 mps 755 mmHg 82%
    10:00 -4°C° 0 mm 6 mps 754 mmHg 79%
    11:00 -3°C° 0 mm 6 mps 754 mmHg 77%
    12:00 -2°C° 0 mm 5 mps 754 mmHg 75%
    13:00 -2°C° 0 mm 5 mps 753 mmHg 73%
    14:00 -2°C° 0 mm 5 mps 753 mmHg 74%
    15:00 -2°C° 0 mm 5 mps 753 mmHg 76%
    16:00 -4°C° 0 mm 5 mps 752 mmHg 78%
    17:00 -4°C° 0 mm 5 mps 752 mmHg 78%
    18:00 -4°C° 0 mm 5 mps 752 mmHg 78%
    19:00 -4°C° 0 mm 5 mps 752 mmHg 78%
    20:00 -4°C° 0 mm 5 mps 752 mmHg 78%
    21:00 -4°C° 0 mm 5 mps 751 mmHg 78%
    22:00 -4°C° 0 mm 5 mps 751 mmHg 78%
    23:00 -4°C° 0 mm 5 mps 751 mmHg 77%

    Tomorrow, 20 December, Thursday

    Time Temperature Precipitation Wind Pressure Humidity
    00:00 -3°C° 0 mm 4 mps 751 mmHg 77%
    01:00 -3°C° 0 mm 4 mps 751 mmHg 77%
    02:00 -3°C° 0 mm 4 mps 751 mmHg 76%
    03:00 -2°C° 0 mm 4 mps 750 mmHg 76%
    04:00 -1°C° 0 mm 3 mps 750 mmHg 76%
    05:00 -1°C° 0 mm 3 mps 750 mmHg 75%
    06:00 -2°C° 0 mm 4 mps 750 mmHg 75%
    07:00 -2°C° 0 mm 4 mps 750 mmHg 74%
    08:00 -2°C° 0 mm 4 mps 750 mmHg 73%
    09:00 -2°C° 0 mm 4 mps 750 mmHg 72%
    10:00 -2°C° 0 mm 4 mps 750 mmHg 71%
    11:00 -2°C° 0 mm 4 mps 750 mmHg 72%
    12:00 -2°C° 0 mm 4 mps 750 mmHg 72%
    13:00 -2°C° 0 mm 4 mps 749 mmHg 72%
    14:00 -2°C° 0 mm 4 mps 749 mmHg 75%
    15:00 -1°C° 0 mm 3 mps 749 mmHg 78%
    16:00 -1°C° 0 mm 3 mps 749 mmHg 81%
    17:00 -1°C° 0.1 mm 3 mps 750 mmHg 84%
    18:00 -1°C° 0.1 mm 3 mps 750 mmHg 86%
    19:00 -1°C° 0.1 mm 3 mps 750 mmHg 88%
    20:00 -1°C° 0.2 mm 3 mps 750 mmHg 89%
    21:00 -2°C° 0.2 mm 4 mps 750 mmHg 90%
    22:00 -1°C° 0.2 mm 4 mps 750 mmHg 91%
    23:00 -1°C° 0 mm 4 mps 749 mmHg 91%

    Day after tomorrow, 21 December, Friday

    Time Temperature Precipitation Wind Pressure Humidity
    00:00 -1°C° 0 mm 4 mps 749 mmHg 91%
    01:00 -1°C° 0 mm 4 mps 749 mmHg 91%
    02:00 -1°C° 0 mm 4 mps 749 mmHg 91%
    03:00 -1°C° 0 mm 4 mps 749 mmHg 91%
    04:00 -1°C° 0 mm 4 mps 749 mmHg 91%
    05:00 -1°C° 0 mm 4 mps 748 mmHg 91%
    06:00 -1°C° 0 mm 4 mps 748 mmHg 91%
    07:00 -1°C° 0 mm 4 mps 748 mmHg 91%
    08:00 -1°C° 0 mm 5 mps 748 mmHg 90%
    09:00 0°C° 0 mm 5 mps 748 mmHg 89%
    10:00 0°C° 0 mm 5 mps 747 mmHg 88%
    11:00 0°C° 0 mm 5 mps 747 mmHg 88%
    12:00 0°C° 0 mm 5 mps 746 mmHg 87%
    13:00 +1°C° 0 mm 5 mps 745 mmHg 86%
    14:00 +1°C° 0.1 mm 5 mps 745 mmHg 87%
    15:00 0°C° 0.1 mm 5 mps 744 mmHg 87%
    16:00 0°C° 0.1 mm 5 mps 743 mmHg 88%
    17:00 0°C° 0.4 mm 5 mps 743 mmHg 88%
    18:00 0°C° 0.4 mm 5 mps 742 mmHg 88%
    19:00 0°C° 0.4 mm 5 mps 741 mmHg 88%
    20:00 +1°C° 0.8 mm 6 mps 740 mmHg 88%
    21:00 +1°C° 0.8 mm 6 mps 740 mmHg 89%
    22:00 +1°C° 0.8 mm 6 mps 739 mmHg 89%
    23:00 +2°C° 0.7 mm 6 mps 738 mmHg 89%

    22 December, Saturday

    Time Temperature Precipitation Wind Pressure Humidity
    00:00 +3°C° 0.7 mm 7 mps 738 mmHg 89%
    01:00 +4°C° 0.7 mm 7 mps 737 mmHg 88%
    02:00 +4°C° 0.1 mm 7 mps 737 mmHg 87%
    03:00 +3°C° 0.1 mm 7 mps 737 mmHg 85%
    04:00 +3°C° 0.1 mm 7 mps 737 mmHg 84%
    05:00 +3°C° 0 mm 7 mps 737 mmHg 84%
    06:00 +2°C° 0 mm 6 mps 738 mmHg 85%
    07:00 +2°C° 0 mm 6 mps 738 mmHg 85%
    08:00 +2°C° 0 mm 6 mps 738 mmHg 85%
    09:00 +3°C° 0 mm 7 mps 738 mmHg 85%
    10:00 +3°C° 0 mm 7 mps 739 mmHg 85%
    11:00 +3°C° 0 mm 7 mps 739 mmHg 85%
    12:00 +4°C° 0 mm 7 mps 738 mmHg 85%
    13:00 +4°C° 0 mm 6 mps 738 mmHg 85%
    14:00 +4°C° 1 mm 6 mps 738 mmHg 87%
    15:00 +4°C° 1 mm 6 mps 738 mmHg 89%
    16:00 +4°C° 1 mm 6 mps 738 mmHg 90%
    17:00 +4°C° 0.4 mm 6 mps 738 mmHg 90%
    18:00 +4°C° 0.4 mm 6 mps 738 mmHg 89%
    19:00 +4°C° 0.4 mm 7 mps 738 mmHg 88%
    20:00 +4°C° 0.1 mm 8 mps 739 mmHg 84%
    21:00 +3°C° 0.1 mm 9 mps 739 mmHg 81%
    22:00 +3°C° 0.1 mm 10 mps 740 mmHg 78%
    23:00 +2°C° 0.1 mm 10 mps 741 mmHg 79%

    23 December, Sunday

    Time Temperature Precipitation Wind Pressure Humidity
    00:00 +2°C° 0.1 mm 10 mps 742 mmHg 80%
    01:00 +1°C° 0.1 mm 10 mps 743 mmHg 80%
    02:00 +1°C° 0 mm 9 mps 744 mmHg 82%
    03:00 0°C° 0 mm 7 mps 745 mmHg 84%
    04:00 +1°C° 0 mm 6 mps 746 mmHg 86%
    05:00 +1°C° 0 mm 5 mps 746 mmHg 88%
    06:00 0°C° 0 mm 4 mps 747 mmHg 90%
    07:00 0°C° 0 mm 4 mps 748 mmHg 92%
    08:00 +1°C° 0 mm 3 mps 748 mmHg 92%
    09:00 +1°C° 0 mm 3 mps 748 mmHg 92%
    10:00 +2°C° 0 mm 2 mps 749 mmHg 91%
    11:00 +3°C° 0 mm 2 mps 749 mmHg 90%
    12:00 +3°C° 0 mm 2 mps 749 mmHg 88%
    13:00 +4°C° 0 mm 2 mps 749 mmHg 86%
    14:00 +3°C° 0.1 mm 2 mps 749 mmHg 88%
    15:00 +3°C° 0.1 mm 2 mps 749 mmHg 90%
    16:00 +3°C° 0.1 mm 2 mps 749 mmHg 92%
    17:00 +2°C° 0.2 mm 3 mps 749 mmHg 91%
    18:00 +1°C° 0.2 mm 4 mps 749 mmHg 90%
    19:00 +2°C° 0.2 mm 5 mps 749 mmHg 89%
    20:00 +3°C° 0 mm 4 mps 749 mmHg 89%
    21:00 +3°C° 0 mm 4 mps 749 mmHg 89%
    22:00 +1°C° 0 mm 4 mps 749 mmHg 88%
    23:00 +1°C° 0.1 mm 4 mps 749 mmHg 88%

    24 December, Monday

    Time Temperature Precipitation Wind Pressure Humidity
    00:00 +2°C° 0.1 mm 5 mps 749 mmHg 88%
    01:00 +2°C° 0.1 mm 5 mps 749 mmHg 87%
    02:00 +2°C° 0.1 mm 5 mps 749 mmHg 88%
    03:00 +2°C° 0.1 mm 5 mps 749 mmHg 88%
    04:00 +2°C° 0.1 mm 6 mps 748 mmHg 88%
    05:00 +2°C° 0.6 mm 6 mps 748 mmHg 87%
    06:00 +2°C° 0.6 mm 6 mps 748 mmHg 87%
    07:00 +2°C° 0.6 mm 7 mps 748 mmHg 86%
    08:00 +2°C° 0.1 mm 7 mps 749 mmHg 84%
    09:00 +1°C° 0.1 mm 8 mps 749 mmHg 81%
    10:00 +1°C° 0.1 mm 8 mps 750 mmHg 79%
    11:00 +1°C° 0.1 mm 8 mps 750 mmHg 78%
    12:00 +2°C° 0.1 mm 7 mps 751 mmHg 77%
    13:00 +2°C° 0.1 mm 7 mps 752 mmHg 76%
    14:00 +1°C° 0 mm 6 mps 752 mmHg 78%
    15:00 +1°C° 0 mm 5 mps 753 mmHg 79%
    16:00 +1°C° 0 mm 4 mps 754 mmHg 80%
    17:00 +1°C° 0.1 mm 4 mps 754 mmHg 82%
    18:00 +1°C° 0.1 mm 4 mps 754 mmHg 84%
    19:00 +1°C° 0.1 mm 4 mps 755 mmHg 86%
    20:00 +1°C° 0.1 mm 4 mps 755 mmHg 86%
    21:00 +1°C° 0.1 mm 4 mps 755 mmHg 86%
    22:00 0°C° 0.1 mm 4 mps 755 mmHg 86%
    23:00 0°C° 0 mm 4 mps 755 mmHg 86%
    Show more